Location: Fort Wayne
(41.1310°N, 85.1290°W)
Time: 17:46:18
(UTC-05:00)

COSMOS 2428 - Visible Passes

Search period start: 25 February 2017 00:00
Search period end: 07 March 2017 00:00
Orbit: 848 x 855 km, 70.9° (Epoch: 25 February)

Date Brightness Start Highest point End Pass type
(mag) Time Alt. Az. Time Alt. Az. Time Alt. Az.
25 Feb 2.8 19:34:11 10° NNW 19:39:46 54° ENE 19:45:19 10° SE visible
25 Feb 4.9 21:19:25 10° NW 21:23:34 21° W 21:27:30 11° SW visible
26 Feb 2.8 19:22:07 10° NNW 19:27:42 54° ENE 19:33:15 10° SE visible
26 Feb 5.0 21:07:22 10° NW 21:11:29 21° W 21:15:38 10° SSW visible
27 Feb 2.8 19:10:02 10° NNW 19:15:37 54° ENE 19:21:11 10° SE visible
27 Feb 5.0 20:55:17 10° NW 20:59:26 21° W 21:03:33 10° SSW visible
28 Feb 2.9 18:57:57 10° NNW 19:03:33 55° ENE 19:09:07 10° SE visible
28 Feb 5.1 20:43:13 10° NW 20:47:21 21° W 20:51:28 10° SSW visible
01 Mar 5.1 20:31:09 10° NW 20:35:17 21° W 20:39:23 10° SSW visible
02 Mar 5.2 20:19:05 10° NW 20:23:11 21° W 20:27:18 10° SSW visible
03 Mar 5.3 20:07:02 10° NW 20:11:08 21° W 20:15:13 10° SSW visible
04 Mar 5.4 19:54:57 10° NW 19:59:03 21° W 20:03:09 10° SSW visible
05 Mar 5.5 19:42:53 10° NW 19:46:59 21° W 19:51:04 10° SSW visible
06 Mar 5.5 19:30:50 10° NW 19:34:55 21° W 19:38:59 10° SSW visible
